This is the latest recevied weather packets stored in our database for station/object EA5GK-10. If no packets are shown the sender has not sent any weather packets the latest 10 day(s).
| Time | Temp. | Humidity | Pressure | Rain* | Wind** | Luminosity | Snow |
|---|---|---|---|---|---|---|---|
| 1788056700 | 22.78° C | 51% | 1018.5 hPa | - | - | - | - |
| 1788055800 | 22.78° C | 51% | 1018.6 hPa | - | - | - | - |
| 1788054900 | 23.33° C | 50% | 1018.7 hPa | - | - | - | - |
| 1788054000 | 23.33° C | 50% | 1018.7 hPa | - | - | - | - |
| 1788053100 | 23.33° C | 49% | 1018.7 hPa | - | - | - | - |
| 1788052200 | 23.89° C | 48% | 1018.8 hPa | - | - | - | - |
| 1788051300 | 23.89° C | 48% | 1018.8 hPa | - | - | - | - |
| 1788050399 | 23.89° C | 48% | 1018.9 hPa | - | - | - | - |
| 1788049499 | 24.44° C | 47% | 1019 hPa | - | - | - | - |
| 1788048599 | 24.44° C | 47% | 1019 hPa | - | - | - | - |
| 1788047699 | 25° C | 46% | 1019.1 hPa | - | - | - | - |
| 1788046799 | 25° C | 46% | 1019.1 hPa | - | - | - | - |
| 1788045899 | 25° C | 45% | 1019.3 hPa | - | - | - | - |
| 1788044999 | 25.56° C | 45% | 1019.4 hPa | - | - | - | - |
| 1788044099 | 25.56° C | 44% | 1019.4 hPa | - | - | - | - |
| 1788043198 | 25.56° C | 44% | 1019.4 hPa | - | - | - | - |
| 1788042298 | 25.56° C | 44% | 1019.4 hPa | - | - | - | - |
| 1788041398 | 26.11° C | 43% | 1019.4 hPa | - | - | - | - |
| 1788040498 | 26.11° C | 43% | 1019.5 hPa | - | - | - | - |
| 1788039598 | 26.11° C | 42% | 1019.5 hPa | - | - | - | - |
| 1788038698 | 26.67° C | 42% | 1019.6 hPa | - | - | - | - |
| 1788037798 | 26.67° C | 42% | 1019.6 hPa | - | - | - | - |
| 1788036898 | 27.78° C | 39% | 1019.5 hPa | - | - | - | - |
| 1788035997 | 27.78° C | 38% | 1019.3 hPa | - | - | - | - |
| 1788035097 | 28.33° C | 38% | 1019.2 hPa | - | - | - | - |
* Rain since midnight (hover to see other rain measurements)
** Current wind speed in m/s (hover to see current wind gust speed)